TimeMDT,TemperatureF,Dew PointF,Humidity,Sea Level PressureIn,VisibilityMPH,Wind Direction,Wind SpeedMPH,Gust SpeedMPH,PrecipitationIn,Events,Conditions,WindDirDegrees,DateUTC
12:53 AM,52.0,27.0,38,29.85,10.0,WSW,3.5,-,N/A,,Overcast,240,2012-10-12 06:53:00
2:53 AM,52.0,26.1,37,29.83,10.0,ESE,3.5,-,N/A,,Clear,120,2012-10-12 08:53:00
3:53 AM,48.9,26.1,41,29.83,10.0,East,3.5,-,N/A,,Clear,80,2012-10-12 09:53:00
4:53 AM,48.0,26.1,42,29.83,10.0,East,5.8,-,N/A,,Clear,80,2012-10-12 10:53:00
5:53 AM,51.1,27.0,39,29.83,10.0,SE,5.8,-,N/A,,Clear,130,2012-10-12 11:53:00
6:53 AM,48.9,27.0,43,29.85,10.0,Calm,Calm,-,N/A,,Clear,0,2012-10-12 12:53:00
7:53 AM,48.0,27.0,44,29.85,10.0,East,8.1,-,N/A,,Scattered Clouds,80,2012-10-12 13:53:00
8:53 AM,50.0,28.0,43,29.86,10.0,ESE,5.8,-,N/A,,Overcast,110,2012-10-12 14:53:00
9:53 AM,51.1,28.0,41,29.86,10.0,East,5.8,-,N/A,,Overcast,90,2012-10-12 15:53:00
11:53 AM,55.0,34.0,45,29.81,10.0,South,4.6,-,N/A,,Mostly Cloudy,180,2012-10-12 17:53:00
12:53 PM,53.1,39.9,61,29.81,10.0,West,6.9,-,0.01,,Overcast,270,2012-10-12 18:53:00
1:53 PM,57.9,37.0,46,29.75,10.0,West,6.9,-,N/A,,Overcast,280,2012-10-12 19:53:00
2:53 PM,57.0,36.0,45,29.74,10.0,West,9.2,-,N/A,,Mostly Cloudy,260,2012-10-12 20:53:00
3:23 PM,46.4,33.8,62,30.00,10.0,SSW,20.7,32.2,N/A,,Overcast,200,2012-10-12 21:23:00
3:44 PM,42.8,37.4,81,29.98,10.0,SW,19.6,33.4,0.01,Rain-Thunderstorm,Light Rain,220,2012-10-12 21:44:00
4:53 PM,43.0,39.9,89,29.86,10.0,South,11.5,18.4,0.01,,Overcast,190,2012-10-12 22:53:00
5:53 PM,43.0,39.0,86,29.85,10.0,SW,15.0,-,0.00,Rain,Light Rain,220,2012-10-12 23:53:00
6:53 PM,41.0,37.0,86,29.87,10.0,WSW,9.2,-,0.01,Rain,Light Rain,240,2012-10-13 00:53:00
7:28 PM,41.0,37.4,87,30.03,5.0,NW,4.6,-,0.04,Rain,Rain,310,2012-10-13 01:28:00
8:02 PM,39.2,35.6,87,30.03,6.0,West,9.2,-,0.01,Rain,Rain,270,2012-10-13 02:02:00
8:48 PM,39.2,35.6,87,30.04,10.0,West,16.1,-,0.06,Rain,Light Rain,260,2012-10-13 02:48:00
8:53 PM,39.0,36.0,89,29.91,10.0,West,13.8,-,0.06,Rain,Light Rain,270,2012-10-13 02:53:00
9:53 PM,37.9,35.1,89,29.92,10.0,WSW,12.7,-,0.03,Rain,Light Rain,250,2012-10-13 03:53:00
10:53 PM,37.9,35.1,89,29.92,10.0,SW,12.7,-,0.01,,Overcast,230,2012-10-13 04:53:00